ELY15 LLBG-KBOS

Flight info

Callsign ELY15
Flight time N/A
Altitude 40000
Route SUVAS N128 OTHON UN128 YOYYO UN618 IMR UN128 LMO DCT EVIVI L863 OKANA DCT NIVIS DCT BABIT DCT SOGMO DCT SASAL DCT DEXIT DCT INBED DCT BOMBI/N0480F380 DCT ADKUV DCT BUB L608 DENUT L610 KOPUL Q60 OKSAW DCT FELCA DCT FADZU DCT BANBA DCT LIMRI/M083F390 DCT 5230N02000W 5230N03000W 52N040W 4930N05000W DCT IBERG/N0474F400 N364A TUSKY DCT EURRO OOSHN5
Aircraft B772/H-SDE2E3FGHIJ5LORVWXY/LB1D1

Departure

Time N/A
Airport Ben Gurion International Airport (LLBG)

Arrival

Time 2026-05-07 03:32
Airport Boston Logan International Airport (KBOS)
Time Latitude Longitude Altitude Speed Heading
2026-05-07 01:10 49.30196 -50.81343 40227 ft 452 kts 251°
2026-05-07 01:10 49.29076 -50.85858 40206 ft 453 kts 251°
2026-05-07 01:11 49.26826 -50.94896 40210 ft 454 kts 251°
2026-05-07 01:11 49.24582 -51.03876 40220 ft 454 kts 251°
2026-05-07 01:12 49.22320 -51.12894 40219 ft 454 kts 251°
2026-05-07 01:12 49.20048 -51.21911 40219 ft 453 kts 251°
2026-05-07 01:13 49.17772 -51.30909 40222 ft 453 kts 251°
2026-05-07 01:13 49.15493 -51.39885 40221 ft 452 kts 251°
2026-05-07 01:14 49.13230 -51.48765 40202 ft 451 kts 251°
2026-05-07 01:14 49.10947 -51.57684 40220 ft 451 kts 251°
2026-05-07 01:15 49.08653 -51.66614 40214 ft 450 kts 251°
2026-05-07 01:15 49.06378 -51.75438 40215 ft 450 kts 251°
2026-05-07 01:16 49.04075 -51.84334 40213 ft 449 kts 251°
2026-05-07 01:16 49.01776 -51.93187 40213 ft 449 kts 251°
2026-05-07 01:17 48.99463 -52.02041 40212 ft 449 kts 250°
2026-05-07 01:17 48.97114 -52.10849 40211 ft 449 kts 250°
2026-05-07 01:18 48.94760 -52.19598 40208 ft 449 kts 250°
2026-05-07 01:18 48.92392 -52.28383 40208 ft 449 kts 250°
2026-05-07 01:19 48.90018 -52.37176 40207 ft 449 kts 250°
2026-05-07 01:19 48.87682 -52.45795 40206 ft 449 kts 250°
2026-05-07 01:20 48.85289 -52.54596 40207 ft 449 kts 250°
2026-05-07 01:20 48.82904 -52.63334 40204 ft 448 kts 250°
2026-05-07 01:21 48.80528 -52.72006 40204 ft 448 kts 250°
2026-05-07 01:21 48.78120 -52.80763 40200 ft 448 kts 250°
2026-05-07 01:22 48.75723 -52.89446 40201 ft 448 kts 250°
2026-05-07 01:22 48.73305 -52.98177 40198 ft 448 kts 249°
2026-05-07 01:23 48.70882 -53.06890 40198 ft 448 kts 249°
2026-05-07 01:23 48.68467 -53.15544 40196 ft 448 kts 249°
2026-05-07 01:24 48.66031 -53.24239 40196 ft 448 kts 249°
2026-05-07 01:24 48.63611 -53.32849 40198 ft 447 kts 249°
2026-05-07 01:25 48.61160 -53.41537 40196 ft 447 kts 249°
2026-05-07 01:25 48.58718 -53.50159 40195 ft 447 kts 249°
2026-05-07 01:26 48.56256 -53.58824 40192 ft 447 kts 249°
2026-05-07 01:26 48.53809 -53.67404 40193 ft 447 kts 249°
2026-05-07 01:27 48.51356 -53.75975 40187 ft 446 kts 249°
2026-05-07 01:27 48.48891 -53.84552 40190 ft 446 kts 249°
2026-05-07 01:28 48.46416 -53.93140 40189 ft 446 kts 249°
2026-05-07 01:28 48.43932 -54.01725 40193 ft 446 kts 249°
2026-05-07 01:29 48.41463 -54.10230 40199 ft 445 kts 249°
2026-05-07 01:29 48.39394 -54.17335 40197 ft 445 kts 248°
2026-05-07 01:30 48.36895 -54.25886 40204 ft 445 kts 248°
2026-05-07 01:30 48.34409 -54.34366 40204 ft 445 kts 248°
2026-05-07 01:31 48.31894 -54.42914 40208 ft 445 kts 248°
2026-05-07 01:31 48.29392 -54.51388 40210 ft 445 kts 248°
2026-05-07 01:32 48.26867 -54.59910 40210 ft 445 kts 248°
2026-05-07 01:32 48.24359 -54.68343 40210 ft 445 kts 248°
2026-05-07 01:33 48.21816 -54.76868 40212 ft 445 kts 248°
2026-05-07 01:33 48.19294 -54.85290 40207 ft 445 kts 248°
2026-05-07 01:34 48.16743 -54.93781 40198 ft 445 kts 248°
2026-05-07 01:34 48.14207 -55.02194 40189 ft 444 kts 248°
2026-05-07 01:35 48.11664 -55.10600 40181 ft 444 kts 248°
2026-05-07 01:35 48.09117 -55.18991 40177 ft 444 kts 248°
2026-05-07 01:36 48.06549 -55.27425 40173 ft 443 kts 248°
2026-05-07 01:36 48.03996 -55.35779 40171 ft 443 kts 248°
2026-05-07 01:37 48.01428 -55.44154 40165 ft 442 kts 248°
2026-05-07 01:37 47.98877 -55.52447 40157 ft 442 kts 248°
2026-05-07 01:38 47.96300 -55.60798 40165 ft 441 kts 247°
2026-05-07 01:38 47.93724 -55.69116 40161 ft 441 kts 247°
2026-05-07 01:39 47.91151 -55.77396 40159 ft 441 kts 247°
2026-05-07 01:39 47.88578 -55.85649 40147 ft 440 kts 247°
2026-05-07 01:40 47.85982 -55.93947 40158 ft 440 kts 247°
2026-05-07 01:40 47.83402 -56.02170 40155 ft 440 kts 247°
2026-05-07 01:41 47.80794 -56.10455 40153 ft 440 kts 247°
2026-05-07 01:41 47.78200 -56.18665 40155 ft 440 kts 246°
2026-05-07 01:42 47.75606 -56.26851 40162 ft 440 kts 246°
2026-05-07 01:42 47.73001 -56.35043 40168 ft 439 kts 246°
2026-05-07 01:43 47.70376 -56.43275 40179 ft 439 kts 246°
2026-05-07 01:43 47.67768 -56.51425 40187 ft 438 kts 246°
2026-05-07 01:44 47.65143 -56.59601 40194 ft 437 kts 246°
2026-05-07 01:44 47.62536 -56.67697 40200 ft 436 kts 246°
2026-05-07 01:45 47.59915 -56.75807 40203 ft 434 kts 246°
2026-05-07 01:45 47.57310 -56.83844 40204 ft 433 kts 246°
2026-05-07 01:46 47.54707 -56.91852 40216 ft 432 kts 246°
2026-05-07 01:46 47.52091 -56.99874 40225 ft 431 kts 246°
2026-05-07 01:47 47.49491 -57.07820 40226 ft 430 kts 246°
2026-05-07 01:47 47.46867 -57.15815 40230 ft 430 kts 246°
2026-05-07 01:48 47.44265 -57.23721 40226 ft 430 kts 246°
2026-05-07 01:48 47.41635 -57.31685 40223 ft 429 kts 246°
2026-05-07 01:49 47.39023 -57.39569 40223 ft 429 kts 246°
2026-05-07 01:49 47.36406 -57.47446 40219 ft 429 kts 246°
2026-05-07 01:50 47.33759 -57.55388 40214 ft 429 kts 245°
2026-05-07 01:50 47.31137 -57.63231 40214 ft 428 kts 245°
2026-05-07 01:51 47.28503 -57.71087 40207 ft 428 kts 245°
2026-05-07 01:51 47.25849 -57.78979 40206 ft 428 kts 245°
2026-05-07 01:52 47.23208 -57.86808 40199 ft 428 kts 245°
2026-05-07 01:52 47.20553 -57.94653 40193 ft 428 kts 245°
2026-05-07 01:53 47.17908 -58.02447 40186 ft 428 kts 245°
2026-05-07 01:53 47.15243 -58.10275 40179 ft 428 kts 245°
2026-05-07 01:54 47.12589 -58.18050 40173 ft 428 kts 245°
2026-05-07 01:54 47.09904 -58.25890 40168 ft 428 kts 244°
2026-05-07 01:55 47.07222 -58.33698 40161 ft 428 kts 244°
2026-05-07 01:55 47.04549 -58.41459 40157 ft 428 kts 244°
2026-05-07 01:56 47.01871 -58.49209 40149 ft 428 kts 244°
2026-05-07 01:56 46.99166 -58.57014 40145 ft 427 kts 244°
2026-05-07 01:57 46.96478 -58.64748 40141 ft 427 kts 244°
2026-05-07 01:57 46.93784 -58.72478 40135 ft 427 kts 244°
2026-05-07 01:58 46.91074 -58.80227 40130 ft 426 kts 244°
2026-05-07 01:58 46.88387 -58.87890 40126 ft 425 kts 244°
2026-05-07 01:59 46.85693 -58.95552 40123 ft 424 kts 243°
2026-05-07 01:59 46.82983 -59.03235 40124 ft 423 kts 243°
2026-05-07 02:00 46.80291 -59.10847 40117 ft 422 kts 243°
2026-05-07 02:00 46.77609 -59.18407 40113 ft 421 kts 243°
2026-05-07 02:01 46.74902 -59.26017 40113 ft 420 kts 243°
2026-05-07 02:01 46.72217 -59.33542 40111 ft 420 kts 243°
2026-05-07 02:02 46.69508 -59.41116 40112 ft 419 kts 243°
2026-05-07 02:02 46.66810 -59.48634 40108 ft 419 kts 243°
2026-05-07 02:03 46.64110 -59.56140 40103 ft 418 kts 243°
2026-05-07 02:03 46.61408 -59.63629 40104 ft 418 kts 243°
2026-05-07 02:04 46.58713 -59.71076 40104 ft 418 kts 242°
2026-05-07 02:04 46.55994 -59.78570 40100 ft 418 kts 242°
2026-05-07 02:05 46.53288 -59.86008 40093 ft 418 kts 242°
2026-05-07 02:05 46.50574 -59.93445 40100 ft 418 kts 242°
2026-05-07 02:06 46.47846 -60.00902 40098 ft 418 kts 242°
2026-05-07 02:06 46.45108 -60.08366 40100 ft 418 kts 242°
2026-05-07 02:07 46.42391 -60.15750 40099 ft 418 kts 242°
2026-05-07 02:07 46.38278 -60.26890 40099 ft 418 kts 242°
2026-05-07 02:08 46.35519 -60.34339 40094 ft 418 kts 242°
2026-05-07 02:08 46.32774 -60.41728 40093 ft 417 kts 242°
2026-05-07 02:09 46.30013 -60.49141 40089 ft 417 kts 242°
2026-05-07 02:09 46.27263 -60.56503 40089 ft 417 kts 242°
2026-05-07 02:10 46.24513 -60.63845 40095 ft 417 kts 242°
2026-05-07 02:10 46.21756 -60.71188 40092 ft 417 kts 241°
2026-05-07 02:11 46.18973 -60.78577 40091 ft 417 kts 241°
2026-05-07 02:11 46.16202 -60.85918 40089 ft 417 kts 241°
2026-05-07 02:12 46.13434 -60.93229 40087 ft 417 kts 241°
2026-05-07 02:12 46.10634 -61.00606 40092 ft 417 kts 241°
2026-05-07 02:13 46.07855 -61.07904 40093 ft 417 kts 240°
2026-05-07 02:13 46.05058 -61.15233 40091 ft 417 kts 240°
2026-05-07 02:14 46.02264 -61.22533 40084 ft 418 kts 240°
2026-05-07 02:14 45.99464 -61.29830 40088 ft 418 kts 240°
2026-05-07 02:15 45.96654 -61.37134 40086 ft 418 kts 240°
2026-05-07 02:15 45.93833 -61.44447 40088 ft 418 kts 240°
2026-05-07 02:16 45.90999 -61.51772 40085 ft 419 kts 240°
2026-05-07 02:16 45.88649 -61.57833 40089 ft 419 kts 240°
2026-05-07 02:17 45.85800 -61.65162 40079 ft 419 kts 240°
2026-05-07 02:17 45.82990 -61.72371 40080 ft 419 kts 240°
2026-05-07 02:18 45.80101 -61.79764 40068 ft 419 kts 240°
2026-05-07 02:18 45.77267 -61.86998 40050 ft 419 kts 239°
2026-05-07 02:19 45.75161 -61.92360 40048 ft 419 kts 239°
2026-05-07 02:19 45.72298 -61.99632 40049 ft 419 kts 239°
2026-05-07 02:20 45.69433 -62.06893 40045 ft 419 kts 240°
2026-05-07 02:20 45.66561 -62.14150 40044 ft 419 kts 239°
2026-05-07 02:21 45.63685 -62.21400 40043 ft 419 kts 239°
2026-05-07 02:21 45.60802 -62.28648 40044 ft 419 kts 239°
2026-05-07 02:22 45.57934 -62.35840 40044 ft 419 kts 239°
2026-05-07 02:22 45.55047 -62.43061 40044 ft 419 kts 240°
2026-05-07 02:23 45.52152 -62.50280 40042 ft 419 kts 240°
2026-05-07 02:23 45.49252 -62.57495 40048 ft 419 kts 240°
2026-05-07 02:24 45.46348 -62.64702 40041 ft 419 kts 240°
2026-05-07 02:24 45.43440 -62.71902 40040 ft 419 kts 240°
2026-05-07 02:25 45.40530 -62.79085 40040 ft 419 kts 240°
2026-05-07 02:25 45.37611 -62.86273 40039 ft 419 kts 239°
2026-05-07 02:26 45.34688 -62.93450 40033 ft 419 kts 239°
2026-05-07 02:26 45.31777 -63.00581 40037 ft 420 kts 239°
2026-05-07 02:27 45.28841 -63.07755 40043 ft 420 kts 239°
2026-05-07 02:27 45.25899 -63.14927 40038 ft 420 kts 239°
2026-05-07 02:28 45.22950 -63.22095 40039 ft 420 kts 239°
2026-05-07 02:28 45.19997 -63.29255 40036 ft 421 kts 239°
2026-05-07 02:29 45.17056 -63.36370 40038 ft 421 kts 239°
2026-05-07 02:29 45.14091 -63.43523 40040 ft 421 kts 239°
2026-05-07 02:30 45.11119 -63.50674 40047 ft 421 kts 239°
2026-05-07 02:30 45.08149 -63.57803 40048 ft 421 kts 239°
2026-05-07 02:31 45.05188 -63.64892 40045 ft 421 kts 239°
2026-05-07 02:31 45.02200 -63.72028 40044 ft 421 kts 239°
2026-05-07 02:32 44.99209 -63.79153 40037 ft 421 kts 239°
2026-05-07 02:32 44.96214 -63.86270 40037 ft 421 kts 239°
2026-05-07 02:33 44.93236 -63.93328 40031 ft 421 kts 239°
2026-05-07 02:33 44.90230 -64.00435 40021 ft 421 kts 239°
2026-05-07 02:34 44.87221 -64.07530 40014 ft 421 kts 239°
2026-05-07 02:34 44.84206 -64.14623 40014 ft 422 kts 239°
2026-05-07 02:35 44.81187 -64.21708 40011 ft 422 kts 239°
2026-05-07 02:35 44.78161 -64.28790 40012 ft 421 kts 239°
2026-05-07 02:36 44.75158 -64.35802 40006 ft 420 kts 240°
2026-05-07 02:36 44.72137 -64.42838 40008 ft 419 kts 240°
2026-05-07 02:37 44.69121 -64.49847 40000 ft 418 kts 240°
2026-05-07 02:37 44.66108 -64.56830 40005 ft 417 kts 240°
2026-05-07 02:38 44.63117 -64.63744 39996 ft 416 kts 239°
2026-05-07 02:38 44.60102 -64.70698 39997 ft 416 kts 239°
2026-05-07 02:39 44.57089 -64.77633 39996 ft 415 kts 239°
2026-05-07 02:39 44.54076 -64.84548 39997 ft 415 kts 239°
2026-05-07 02:40 44.51077 -64.91415 39998 ft 416 kts 239°
2026-05-07 02:40 44.48056 -64.98315 39997 ft 416 kts 239°
2026-05-07 02:41 44.45024 -65.05225 39996 ft 416 kts 239°
2026-05-07 02:41 44.41987 -65.12129 39996 ft 416 kts 239°
2026-05-07 02:42 44.38948 -65.19020 39994 ft 416 kts 239°
2026-05-07 02:42 44.35905 -65.25903 39988 ft 416 kts 239°
2026-05-07 02:43 44.32855 -65.32787 39993 ft 416 kts 239°
2026-05-07 02:43 44.29807 -65.39651 39991 ft 416 kts 239°
2026-05-07 02:44 44.26774 -65.46464 39987 ft 416 kts 240°
2026-05-07 02:44 44.23714 -65.53321 39985 ft 415 kts 239°
2026-05-07 02:45 44.20659 -65.60151 39981 ft 415 kts 239°
2026-05-07 02:45 44.17603 -65.66966 39977 ft 414 kts 239°
2026-05-07 02:46 44.14547 -65.73767 39977 ft 414 kts 239°
2026-05-07 02:46 44.11484 -65.80565 39972 ft 414 kts 239°
2026-05-07 02:47 44.08422 -65.87345 39965 ft 414 kts 239°
2026-05-07 02:47 44.05354 -65.94124 39959 ft 414 kts 239°
2026-05-07 02:48 44.02305 -66.00846 39973 ft 414 kts 239°
2026-05-07 02:48 43.99221 -66.07629 39958 ft 415 kts 239°
2026-05-07 02:49 43.96134 -66.14401 39960 ft 415 kts 239°
2026-05-07 02:49 43.93040 -66.21172 39962 ft 415 kts 239°
2026-05-07 02:50 43.89963 -66.27893 39957 ft 414 kts 239°
2026-05-07 02:50 43.86866 -66.34640 39951 ft 414 kts 239°
2026-05-07 02:51 43.83771 -66.41369 39943 ft 414 kts 239°
2026-05-07 02:51 43.80685 -66.48060 39929 ft 413 kts 239°
2026-05-07 02:52 43.77587 -66.54764 39912 ft 413 kts 239°
2026-05-07 02:52 43.74484 -66.61463 39902 ft 413 kts 239°
2026-05-07 02:53 43.71379 -66.68152 39893 ft 413 kts 239°
2026-05-07 02:53 43.68275 -66.74823 39889 ft 412 kts 239°
2026-05-07 02:54 43.65170 -66.81483 39884 ft 412 kts 239°
2026-05-07 02:54 43.62079 -66.88098 39879 ft 412 kts 239°
2026-05-07 02:55 43.58968 -66.94740 39870 ft 412 kts 239°
2026-05-07 02:55 43.56127 -67.01582 39862 ft 410 kts 246°
2026-05-07 02:56 43.53989 -67.08853 39864 ft 409 kts 250°
2026-05-07 02:56 43.51954 -67.16189 39856 ft 409 kts 250°
2026-05-07 02:57 43.49910 -67.23512 39855 ft 409 kts 250°
2026-05-07 02:57 43.47864 -67.30797 39850 ft 410 kts 250°
2026-05-07 02:58 43.45800 -67.38110 39843 ft 410 kts 250°
2026-05-07 02:58 43.43727 -67.45435 39835 ft 410 kts 250°
2026-05-07 02:59 43.41652 -67.52744 39840 ft 410 kts 250°
2026-05-07 02:59 43.39575 -67.60039 39839 ft 410 kts 250°
2026-05-07 03:00 43.37503 -67.67292 39835 ft 410 kts 250°
2026-05-07 03:00 43.35416 -67.74579 39833 ft 410 kts 250°
2026-05-07 03:01 43.33324 -67.81864 39831 ft 409 kts 250°
2026-05-07 03:01 43.31229 -67.89136 39830 ft 409 kts 250°
2026-05-07 03:02 43.29129 -67.96405 39827 ft 409 kts 250°
2026-05-07 03:02 43.27022 -68.03679 39824 ft 409 kts 250°
2026-05-07 03:03 43.25266 -68.09722 39825 ft 409 kts 250°
2026-05-07 03:03 43.22811 -68.18149 39819 ft 409 kts 250°
2026-05-07 03:04 43.20692 -68.25399 39829 ft 409 kts 250°
2026-05-07 03:04 43.18929 -68.31419 39824 ft 409 kts 250°
2026-05-07 03:05 43.16804 -68.38654 39822 ft 409 kts 250°
2026-05-07 03:05 43.14676 -68.45878 39824 ft 408 kts 250°
2026-05-07 03:06 43.12546 -68.53087 39828 ft 408 kts 250°
2026-05-07 03:06 43.10423 -68.60253 39818 ft 409 kts 250°
2026-05-07 03:07 43.08284 -68.67454 39822 ft 408 kts 250°
2026-05-07 03:07 43.06142 -68.74641 39822 ft 408 kts 250°
2026-05-07 03:08 43.03998 -68.81819 39820 ft 408 kts 250°
2026-05-07 03:08 43.01849 -68.88994 39820 ft 408 kts 250°
2026-05-07 03:09 42.99694 -68.96167 39753 ft 408 kts 250°
2026-05-07 03:09 42.98604 -68.99791 39151 ft 414 kts 250°
2026-05-07 03:09 42.97515 -69.03399 38682 ft 408 kts 250°
2026-05-07 03:10 42.96458 -69.06897 38201 ft 400 kts 250°
2026-05-07 03:10 42.95401 -69.10387 37502 ft 396 kts 250°
2026-05-07 03:10 42.94351 -69.13856 36674 ft 395 kts 250°
2026-05-07 03:10 42.93298 -69.17332 35799 ft 396 kts 250°
2026-05-07 03:11 42.92246 -69.20801 34935 ft 396 kts 250°
2026-05-07 03:11 42.91188 -69.24284 34084 ft 396 kts 251°
2026-05-07 03:11 42.90134 -69.27751 33134 ft 395 kts 250°
2026-05-07 03:11 42.89077 -69.31220 32011 ft 397 kts 250°
2026-05-07 03:12 42.88012 -69.34716 30831 ft 401 kts 250°
2026-05-07 03:12 42.86944 -69.38210 30061 ft 396 kts 250°
2026-05-07 03:12 42.85903 -69.41610 29213 ft 392 kts 250°
2026-05-07 03:12 42.84848 -69.45052 28631 ft 394 kts 250°
2026-05-07 03:13 42.83796 -69.48482 28293 ft 391 kts 250°
2026-05-07 03:13 42.82743 -69.51913 27377 ft 392 kts 249°
2026-05-07 03:13 42.81695 -69.55321 26517 ft 386 kts 249°
2026-05-07 03:13 42.80663 -69.58671 25715 ft 381 kts 249°
2026-05-07 03:14 42.79641 -69.61983 24924 ft 377 kts 249°
2026-05-07 03:14 42.78632 -69.65251 24144 ft 373 kts 249°
2026-05-07 03:14 42.76633 -69.71718 22495 ft 368 kts 248°
2026-05-07 03:15 42.75645 -69.74908 21705 ft 363 kts 248°
2026-05-07 03:15 42.74668 -69.78059 20951 ft 359 kts 247°
2026-05-07 03:15 42.73701 -69.81172 20236 ft 355 kts 247°
2026-05-07 03:15 42.72744 -69.84251 19546 ft 352 kts 246°
2026-05-07 03:16 42.71793 -69.87306 18856 ft 349 kts 246°
2026-05-07 03:16 42.70862 -69.90295 18183 ft 347 kts 245°
2026-05-07 03:16 42.69921 -69.93310 17420 ft 345 kts 246°
2026-05-07 03:16 42.69853 -69.93527 17363 ft 345 kts 246°
2026-05-07 03:17 42.69102 -69.95925 16823 ft 378 kts 246°
2026-05-07 03:17 42.68036 -69.99327 16477 ft 394 kts 246°
2026-05-07 03:17 42.66985 -70.02695 16697 ft 373 kts 246°
2026-05-07 03:17 42.66010 -70.05813 15854 ft 347 kts 246°
2026-05-07 03:18 42.65782 -70.06537 15576 ft 342 kts 246°
2026-05-07 03:18 42.65239 -70.08267 14849 ft 332 kts 246°
2026-05-07 03:18 42.64340 -70.10999 14372 ft 294 kts 245°
2026-05-07 03:18 42.63578 -70.13379 14217 ft 261 kts 254°
2026-05-07 03:19 42.63466 -70.15845 13922 ft 268 kts 271°
2026-05-07 03:19 42.63741 -70.18370 13564 ft 272 kts 275°
2026-05-07 03:19 42.64088 -70.20861 13147 ft 270 kts 276°
2026-05-07 03:19 42.64450 -70.23356 12732 ft 269 kts 276°
2026-05-07 03:20 42.64814 -70.25838 12339 ft 268 kts 276°
2026-05-07 03:20 42.65182 -70.28336 11911 ft 267 kts 276°
2026-05-07 03:20 42.65547 -70.30807 11501 ft 265 kts 276°
2026-05-07 03:20 42.65909 -70.33254 11117 ft 264 kts 276°
2026-05-07 03:21 42.66264 -70.35659 10728 ft 262 kts 276°
2026-05-07 03:21 42.66621 -70.38082 10334 ft 261 kts 277°
2026-05-07 03:21 42.66976 -70.40494 9944 ft 260 kts 277°
2026-05-07 03:21 42.67326 -70.42890 9609 ft 257 kts 277°
2026-05-07 03:22 42.67670 -70.45255 9258 ft 254 kts 277°
2026-05-07 03:22 42.68009 -70.47605 8923 ft 250 kts 277°
2026-05-07 03:22 42.68341 -70.49915 8586 ft 247 kts 277°
2026-05-07 03:22 42.68665 -70.52201 8264 ft 245 kts 277°
2026-05-07 03:23 42.68983 -70.54451 7946 ft 243 kts 277°
2026-05-07 03:23 42.69280 -70.56692 7619 ft 238 kts 272°
2026-05-07 03:23 42.69024 -70.58875 7309 ft 230 kts 245°
2026-05-07 03:23 42.68199 -70.60756 7083 ft 235 kts 237°
2026-05-07 03:24 42.67264 -70.62584 6840 ft 241 kts 236°
2026-05-07 03:24 42.66298 -70.64437 6593 ft 239 kts 236°
2026-05-07 03:24 42.65342 -70.66267 6353 ft 236 kts 236°
2026-05-07 03:24 42.64392 -70.68078 6110 ft 233 kts 236°
2026-05-07 03:25 42.63454 -70.69857 6061 ft 231 kts 236°
2026-05-07 03:25 42.62521 -70.71629 5953 ft 229 kts 236°
2026-05-07 03:25 42.61601 -70.73380 5727 ft 227 kts 236°
2026-05-07 03:25 42.60683 -70.75123 5412 ft 227 kts 236°
2026-05-07 03:26 42.59763 -70.76862 5107 ft 226 kts 236°
2026-05-07 03:26 42.58844 -70.78593 4794 ft 226 kts 236°
2026-05-07 03:26 42.57923 -70.80321 4471 ft 225 kts 236°
2026-05-07 03:26 42.57005 -70.82034 4191 ft 223 kts 236°
2026-05-07 03:27 42.56086 -70.83731 3905 ft 221 kts 236°
2026-05-07 03:27 42.55188 -70.85376 3629 ft 219 kts 236°
2026-05-07 03:27 42.54286 -70.87022 3367 ft 216 kts 236°
2026-05-07 03:27 42.53393 -70.88637 3119 ft 212 kts 236°
2026-05-07 03:28 42.52508 -70.90224 2866 ft 209 kts 236°
2026-05-07 03:28 42.51634 -70.91771 2647 ft 204 kts 236°
2026-05-07 03:28 42.50691 -70.93137 2477 ft 197 kts 220°
2026-05-07 03:28 42.49522 -70.93986 2237 ft 183 kts 213°
2026-05-07 03:29 42.48404 -70.94678 2070 ft 168 kts 210°
2026-05-07 03:29 42.47325 -70.95241 2047 ft 166 kts 208°
2026-05-07 03:29 42.46245 -70.95774 1875 ft 165 kts 208°
2026-05-07 03:29 42.45191 -70.96284 1659 ft 157 kts 207°
2026-05-07 03:30 42.44169 -70.96783 1467 ft 155 kts 208°
2026-05-07 03:30 42.43174 -70.97267 1268 ft 147 kts 206°
2026-05-07 03:30 42.42252 -70.97704 1034 ft 133 kts 206°
2026-05-07 03:30 42.41399 -70.98116 940 ft 131 kts 204°
2026-05-07 03:31 42.40541 -70.98522 812 ft 130 kts 202°
2026-05-07 03:31 42.39676 -70.98929 593 ft 134 kts 201°
2026-05-07 03:31 42.38805 -70.99360 386 ft 133 kts 201°
2026-05-07 03:31 42.37947 -70.99786 208 ft 133 kts 201°
2026-05-07 03:32 42.37079 -71.00222 36 ft 131 kts 202°
2026-05-07 03:32 42.36326 -71.00591 30 ft 95 kts 200°
2026-05-07 03:32 42.35849 -71.00822 30 ft 51 kts 200°
2026-05-07 03:32 42.35655 -71.00926 30 ft 18 kts 220°
2026-05-07 03:33 42.35636 -71.01089 30 ft 18 kts 287°
2026-05-07 03:33 42.35702 -71.01237 30 ft 18 kts 308°
2026-05-07 03:33 42.35763 -71.01388 30 ft 18 kts 289°
2026-05-07 03:33 42.35802 -71.01537 30 ft 12 kts 295°
2026-05-07 03:34 42.35875 -71.01553 30 ft 12 kts 23°
2026-05-07 03:34 42.35952 -71.01516 30 ft 12 kts 18°
2026-05-07 03:34 42.36037 -71.01479 30 ft 14 kts 18°
2026-05-07 03:34 42.36130 -71.01434 30 ft 14 kts 20°
2026-05-07 03:35 42.36224 -71.01389 30 ft 14 kts 20°
2026-05-07 03:35 42.36316 -71.01345 30 ft 14 kts 20°
2026-05-07 03:35 42.36410 -71.01299 30 ft 14 kts 20°
2026-05-07 03:35 42.36503 -71.01254 30 ft 14 kts 20°
2026-05-07 03:36 42.36596 -71.01208 30 ft 14 kts 20°
2026-05-07 03:36 42.36690 -71.01163 30 ft 14 kts 20°
2026-05-07 03:36 42.36786 -71.01159 30 ft 15 kts 336°
2026-05-07 03:36 42.36881 -71.01266 30 ft 18 kts 317°
2026-05-07 03:37 42.36972 -71.01389 28 ft 18 kts 313°
2026-05-07 03:37 42.37036 -71.01511 30 ft 13 kts 276°
2026-05-07 03:37 42.37039 -71.01597 30 ft 6 kts 281°
2026-05-07 03:37 42.37046 -71.01628 30 ft 0 kts 292°
2026-05-07 03:38 42.37046 -71.01633 30 ft 2 kts 274°
2026-05-07 03:38 42.37034 -71.01644 30 ft 2 kts 196°
2026-05-07 03:38 42.37023 -71.01631 30 ft 3 kts 127°
2026-05-07 03:38 42.37006 -71.01614 30 ft 1 kts 165°
2026-05-07 03:39 42.36992 -71.01614 30 ft 6 kts 185°
2026-05-07 03:39 42.36971 -71.01649 30 ft 4 kts 271°
2026-05-07 03:39 42.36976 -71.01686 30 ft 4 kts 281°
2026-05-07 03:39 42.36980 -71.01704 30 ft 2 kts 287°
2026-05-07 03:40 42.36982 -71.01711 30 ft 0 kts 287°